Vorticity
-24 5 12 9 8 7 8 6 6 5 4 5 6 6 5 5 5 5 6 6 5 6 6 6 6 5 6 8 -4 11 13 5 8 7 6 8 11 16 16 1 -1 0 5 7 6 11 3
12 -1 6 11 6 8 12 9 5 6 1 2 4 4 4 4 6 5 5 5 6 6 6 6 7 6 5 2 -2 -0 5 7 9 11 11 18 14 8 7 27 22 15 7 9 14 18 15
13 8 9 12 5 7 -3 -2 0 -2 -9 -13 -11 -1 3 1 4 4 6 6 6 6 6 6 7 7 1 -3 -5 3 15 21 11 11 7 2 1 2 -3 4 53 21 3 -4 -2 3 6
33 7 -1 5 8 9 8 6 5 5 13 12 16 8 6 6 7 4 5 6 6 6 7 7 6 12 7 13 10 20 6 0 5 10 16 14 12 12 21 18 12 14 23 19 21 13 5
-10 23 2 7 6 4 8 8 7 6 6 5 4 7 4 2 5 8 5 5 6 6 6 8 7 2 17 26 8 -4 9 13 13 14 19 25 17 19 6 10 13 21 -9 4 11 5 -2
9 1 -5 6 6 0 -0 3 4 3 5 5 5 2 6 10 7 7 6 6 6 7 9 8 9 23 8 -18 2 10 4 12 19 16 25 14 5 6 14 15 -3 2 11 4 5 6 7
16 6 7 5 6 11 7 6 4 5 3 5 6 7 4 5 7 6 7 7 7 11 8 14 -9 -2 2 8 12 26 10 14 3 11 9 13 10 4 3 5 6 7 5 5 9 13 13
6 11 4 -2 1 20 5 6 5 6 5 4 5 5 6 6 7 10 8 5 12 -1 8 4 15 16 8 11 22 2 -0 15 11 13 12 16 16 8 8 5 4 8 9 9 9 10 -1
9 8 10 12 13 -4 7 12 5 5 6 7 6 4 3 5 10 12 6 7 6 2 12 9 12 14 12 21 18 2 6 7 22 7 3 10 2 22 3 -0 10 11 10 7 1 12 16
11 11 9 10 14 7 3 11 14 3 10 9 6 4 6 5 9 3 5 7 8 20 15 3 30 19 12 11 17 22 -5 14 14 -1 18 14 -3 -3 22 22 13 6 6 13 10 11 12
9 12 9 10 17 -4 5 13 23 -29 8 -7 11 10 7 5 6 6 8 11 9 15 15 21 7 12 9 14 5 -26 21 12 10 5 7 -13 16 20 12 4 3 7 10 8 10 7 7
10 10 13 4 -0 4 8 15 1 24 2 8 3 9 1 7 14 5 9 1 -1 30 15 6 5 -3 12 10 10 18 9 8 9 26 11 16 20 -0 16 -6 11 11 16 40 34 30 40
9 11 14 12 7 1 -0 25 17 5 7 4 7 4 3 10 5 10 -11 -12 29 2 5 16 17 19 3 6 4 17 10 4 20 20 -5 32 -17 1 -1 18 21 29 11 18 11 10 10
12 8 12 15 16 7 -6 15 13 10 -5 5 3 5 15 -11 13 6 15 30 7 16 -1 -4 7 11 8 10 1 16 16 6 -3 25 7 2 6 14 -11 -1 7 14 6 15 15 -1 -12
8 13 12 15 18 7 -5 -5 29 3 6 -2 7 5 4 15 1 -3 10 4 0 20 13 14 11 1 5 -7 12 20 12 5 4 7 20 6 18 -4 2 9 -4 -1 7 29 18 35 27
8 10 13 11 16 8 -0 -3 1 7 3 7 2 8 12 9 8 -9 12 1 3 4 10 15 -0 11 7 5 11 12 12 6 -4 8 4 -22 11 -5 28 16 10 11 -3 10 7 13 9
12 11 13 15 17 10 5 17 23 3 4 4 6 16 9 20 11 13 -5 -6 8 21 15 8 0 11 12 5 6 7 11 2 6 5 15 10 14 -11 36 -19 5 33 -6 44 23 4 9
12 11 14 16 -1 -6 1 20 -11 7 2 8 0 16 30 9 -6 13 3 -1 16 5 9 -1 13 13 5 9 9 2 8 9 16 9 7 7 1 8 22 -29 12 1 18 49 35 31 52
10 10 16 16 16 5 18 2 10 4 5 3 5 8 12 21 6 26 25 12 16 13 11 10 13 7 11 4 3 2 6 14 7 8 23 8 6 13 -1 9 0 -6 14 23 2 34 43
10 8 19 16 -7 10 5 11 12 4 4 7 2 -17 3 4 5 19 3 11 12 7 13 6 16 11 7 10 12 10 6 2 -2 0 2 5 5 7 1 17 7 2 -1 3 18 -5 -10
12 12 9 19 25 10 10 -0 7 -1 1 7 0 -4 1 46 9 14 18 15 0 -5 8 7 12 8 6 5 7 6 6 6 -0 -1 15 -1 -1 12 21 8 5 7 8 10 5 4 13
10 7 26 -16 5 -18 13 9 18 24 -9 -8 31 -7 31 14 11 14 3 5 6 9 6 0 15 11 16 5 -3 -3 4 7 12 11 12 9 17 10 25 -5 4 -0 7 -1 -0 15 8
7 14 36 9 5 13 7 4 10 -1 -4 14 -6 22 24 38 17 9 8 11 4 14 8 10 9 5 10 -2 0 7 7 6 3 7 6 6 11 9 19 27 -8 -14 15 9 4 9 4
12 35 43 -32 13 8 4 23 -7 1 18 15 26 13 -5 16 12 -0 10 12 8 1 10 3 13 2 12 14 13 12 9 12 10 8 11 11 15 18 8 20 19 6 14 8 -2 1 7
15 24 10 0 -13 -4 39 -3 -9 16 20 9 5 4 -1 7 4 11 8 6 3 9 2 9 -4 18 16 9 3 5 2 7 24 2 8 4 10 16 10 43 7 1 12 9 20 -10 -1
20 11 -3 17 23 11 -22 2 10 14 -10 18 5 2 17 10 10 32 0 10 5 8 1 10 10 3 10 -6 7 18 15 8 4 12 3 2 1 13 12 11 22 -2 8 8 7 21 6
-19 33 0 23 7 -2 19 0 17 24 40 10 -7 18 6 15 19 14 6 2 5 8 2 6 8 14 -4 4 -1 12 9 8 11 8 6 9 6 3 6 13 11 -7 11 24 2 -22 10
32 6 -3 21 -10 14 18 8 42 18 3 4 18 10 5 -1 23 8 12 2 14 9 8 9 1 5 2 5 11 8 10 6 11 4 8 6 11 9 12 9 20 -10 12 15 3 10 5
-27 8 -8 16 11 0 38 15 7 -1 4 9 7 11 10 3 1 -0 6 -5 6 3 11 10 -7 24 13 1 5 5 8 7 2 14 7 11 -4 2 5 -2 1 6 6 12 7 5 16
Height
3052 3057 3063 3071 3076 3083 3089 3093 3096 3100 3104 3110 3115 3118 3120 3122 3125 3125 3127 3128 3128 3129 3130 3130 3130 3130 3130 3131 3128 3128 3127 3126 3123 3120 3119 3118 3116 3113 3111 3111 3110 3107 3107 3105 3103 3102 3099
3045 3051 3057 3064 3071 3076 3085 3089 3093 3096 3101 3102 3109 3113 3116 3117 3121 3123 3123 3126 3127 3126 3126 3127 3127 3126 3126 3126 3125 3123 3121 3118 3116 3115 3114 3111 3109 3108 3102 3102 3102 3100 3097 3093 3092 3090 3092
3036 3044 3051 3058 3064 3071 3078 3082 3089 3093 3097 3099 3103 3109 3113 3113 3116 3120 3121 3123 3123 3124 3124 3123 3123 3122 3121 3120 3119 3117 3115 3112 3111 3109 3107 3106 3105 3103 3101 3095 3095 3093 3087 3086 3084 3083 3084
3028 3037 3045 3052 3059 3066 3072 3078 3083 3086 3091 3095 3102 3105 3108 3110 3115 3116 3117 3119 3120 3120 3120 3120 3119 3118 3115 3116 3114 3111 3108 3108 3104 3102 3100 3098 3097 3095 3093 3092 3088 3087 3085 3077 3081 3080 3082
3021 3028 3037 3045 3053 3059 3066 3072 3076 3082 3086 3093 3098 3101 3103 3106 3111 3114 3114 3116 3116 3116 3116 3116 3116 3114 3111 3109 3107 3106 3100 3101 3098 3098 3095 3091 3090 3090 3090 3090 3087 3085 3076 3076 3075 3078 3071
3012 3021 3029 3036 3046 3053 3059 3066 3070 3076 3083 3090 3094 3097 3098 3103 3105 3108 3111 3112 3111 3112 3112 3112 3111 3112 3107 3106 3104 3100 3092 3095 3091 3091 3091 3090 3089 3089 3090 3091 3084 3080 3075 3072 3070 3071 3067
3002 3012 3020 3029 3039 3047 3053 3059 3064 3072 3079 3085 3088 3092 3094 3098 3102 3105 3109 3110 3112 3109 3109 3109 3107 3106 3100 3103 3097 3095 3086 3090 3089 3087 3090 3089 3085 3087 3088 3086 3081 3077 3073 3067 3069 3068 3062
2992 3002 3012 3022 3031 3039 3046 3052 3059 3067 3074 3079 3083 3087 3091 3094 3099 3102 3104 3106 3106 3106 3103 3103 3101 3099 3098 3097 3096 3094 3087 3089 3085 3085 3086 3085 3083 3086 3081 3080 3079 3076 3071 3065 3059 3062 3060
2981 2992 3003 3014 3024 3033 3039 3046 3054 3062 3069 3074 3079 3083 3087 3090 3095 3098 3100 3104 3104 3102 3101 3096 3095 3094 3095 3093 3091 3090 3087 3083 3083 3085 3083 3081 3081 3081 3079 3079 3076 3073 3068 3062 3057 3053 3053
2972 2984 2995 3005 3015 3024 3033 3040 3049 3058 3064 3070 3075 3080 3084 3087 3093 3094 3096 3100 3101 3099 3098 3095 3091 3089 3090 3090 3090 3088 3082 3083 3083 3082 3079 3078 3079 3079 3078 3075 3074 3068 3066 3059 3054 3051 3043
2962 2974 2986 2997 3008 3018 3025 3035 3043 3047 3059 3066 3071 3076 3079 3082 3087 3092 3095 3096 3096 3097 3100 3094 3090 3089 3088 3092 3090 3088 3084 3082 3081 3079 3079 3078 3077 3077 3075 3074 3071 3065 3059 3053 3049 3046 3042
2954 2965 2977 2989 3000 3010 3020 3028 3037 3044 3056 3061 3066 3071 3076 3080 3085 3088 3090 3091 3095 3101 3097 3092 3088 3087 3090 3088 3087 3086 3087 3080 3079 3078 3077 3075 3075 3077 3074 3071 3068 3061 3053 3043 3039 3039 3039
2945 2957 2969 2981 2992 3003 3012 3019 3031 3041 3050 3055 3061 3067 3072 3078 3082 3085 3086 3090 3095 3095 3093 3091 3089 3087 3087 3087 3087 3086 3087 3081 3082 3079 3076 3074 3075 3074 3071 3068 3063 3057 3053 3043 3037 3034 3037
2938 2948 2961 2973 2985 2997 3007 3016 3027 3035 3041 3050 3057 3064 3068 3073 3077 3081 3083 3088 3089 3087 3088 3085 3088 3087 3088 3086 3087 3086 3088 3087 3085 3083 3081 3079 3076 3073 3071 3071 3066 3060 3059 3056 3047 3041 3042
2931 2942 2954 2966 2980 2992 3004 3008 3017 3027 3037 3046 3054 3059 3063 3068 3072 3076 3078 3083 3081 3082 3084 3085 3088 3087 3088 3085 3086 3086 3089 3089 3086 3083 3083 3081 3077 3075 3073 3071 3067 3059 3057 3052 3049 3045 3044
2924 2935 2947 2960 2973 2986 2998 3006 3012 3022 3035 3043 3047 3055 3061 3065 3068 3072 3075 3076 3078 3078 3080 3084 3085 3087 3087 3085 3087 3088 3089 3088 3086 3085 3083 3081 3077 3074 3072 3072 3068 3063 3058 3050 3048 3042 3047
2917 2929 2940 2952 2967 2981 2991 2996 3009 3020 3030 3037 3046 3052 3057 3061 3064 3068 3070 3072 3073 3076 3079 3081 3081 3082 3084 3086 3088 3089 3090 3090 3088 3086 3084 3081 3080 3076 3072 3072 3067 3058 3053 3049 3046 3045 3041
2911 2922 2933 2948 2964 2976 2983 2992 3006 3015 3025 3034 3041 3048 3053 3058 3062 3062 3066 3068 3071 3073 3075 3077 3080 3082 3085 3085 3087 3088 3090 3090 3085 3084 3084 3083 3080 3075 3074 3074 3070 3064 3058 3048 3043 3049 3045
2904 2914 2928 2944 2958 2971 2978 2991 3002 3012 3021 3028 3035 3044 3047 3052 3056 3058 3063 3066 3069 3071 3074 3076 3079 3082 3084 3084 3087 3089 3089 3087 3085 3086 3084 3082 3082 3077 3074 3076 3072 3065 3064 3057 3054 3053 3053
2896 2909 2925 2941 2954 2965 2976 2989 2999 3008 3016 3028 3035 3039 3042 3047 3053 3059 3060 3064 3067 3071 3073 3075 3078 3081 3083 3085 3086 3087 3088 3087 3086 3087 3085 3083 3081 3080 3079 3077 3076 3073 3070 3068 3064 3061 3066
2890 2906 2924 2939 2948 2961 2973 2986 2995 3003 3013 3022 3028 3033 3039 3040 3048 3054 3059 3063 3065 3067 3071 3076 3079 3081 3084 3085 3086 3087 3088 3088 3086 3087 3085 3084 3081 3079 3078 3077 3077 3075 3072 3071 3068 3069 3068
2890 2905 2921 2937 2948 2960 2974 2983 2991 3000 3008 3019 3024 3027 3031 3039 3046 3052 3057 3059 3063 3066 3070 3075 3077 3080 3080 3083 3085 3085 3086 3087 3088 3088 3086 3084 3081 3078 3077 3076 3075 3075 3074 3072 3071 3069 3069
2889 2905 2919 2936 2949 2961 2971 2980 2989 2998 3006 3013 3020 3027 3032 3036 3043 3048 3051 3057 3063 3067 3071 3075 3079 3079 3080 3084 3085 3086 3085 3085 3085 3086 3084 3083 3081 3078 3075 3074 3073 3073 3074 3073 3072 3070 3070
2893 2905 2919 2933 2947 2959 2967 2978 2988 2996 3003 3013 3021 3025 3029 3034 3040 3045 3052 3058 3063 3066 3070 3075 3076 3079 3081 3081 3082 3083 3083 3085 3084 3086 3084 3082 3080 3079 3076 3073 3072 3077 3073 3073 3073 3072 3072
2892 2904 2919 2934 2946 2956 2967 2978 2985 2994 3002 3010 3017 3024 3029 3032 3038 3045 3052 3059 3063 3066 3071 3073 3075 3076 3078 3081 3083 3085 3085 3086 3084 3084 3084 3082 3081 3079 3078 3074 3077 3077 3076 3074 3072 3072 3071
2894 2907 2922 2932 2946 2956 2966 2975 2984 2992 3001 3009 3015 3023 3030 3032 3039 3044 3050 3056 3059 3066 3069 3072 3074 3076 3079 3081 3082 3082 3082 3082 3083 3083 3082 3082 3080 3080 3078 3075 3073 3076 3075 3074 3070 3068 3069
2898 2910 2921 2934 2944 2956 2966 2975 2983 2990 2998 3009 3016 3021 3028 3033 3039 3043 3048 3052 3060 3064 3067 3071 3073 3076 3078 3080 3081 3081 3081 3082 3081 3081 3081 3081 3079 3079 3078 3076 3076 3075 3073 3069 3071 3073 3068
2900 2913 2921 2934 2947 2956 2965 2974 2982 2991 3000 3007 3014 3019 3025 3032 3039 3046 3051 3056 3061 3064 3065 3069 3073 3074 3077 3078 3080 3080 3079 3080 3080 3079 3079 3079 3078 3076 3076 3075 3074 3072 3071 3071 3071 3068 3066
2905 2915 2926 2937 2946 2956 2965 2975 2984 2992 2999 3006 3015 3020 3025 3031 3036 3041 3046 3050 3057 3065 3065 3068 3070 3071 3073 3076 3077 3078 3078 3078 3078 3078 3077 3078 3077 3076 3076 3072 3071 3070 3069 3068 3067 3066 3063